Location: Chequamegon National Forest
(46.1070°N, 90.8420°W)
Time: 21:21:13
(UTC-05:00)

ISS - All Passes

Search period start: 20 August 2014 00:00
Search period end: 30 August 2014 00:00
Orbit: 413 x 419 km, 51.6° (Epoch: 20 August)

Date Brightness Start Highest point End Pass type
(mag) Time Alt. Az. Time Alt. Az. Time Alt. Az.
20 Aug - 14:28:11 10° S 14:30:24 17° SE 14:32:36 10° E daylight
20 Aug - 16:03:26 10° WSW 16:06:45 84° NNW 16:10:06 10° ENE daylight
20 Aug - 17:40:45 10° WNW 17:43:48 32° N 17:46:51 10° ENE daylight
20 Aug - 19:17:56 10° WNW 19:21:04 36° NNE 19:24:12 10° E daylight
20 Aug - 20:54:40 10° WNW 20:57:59 65° SSW 21:01:17 10° SE visible
20 Aug - 22:33:29 10° WSW 22:34:09 10° SW 22:34:48 10° SW visible
21 Aug - 13:41:48 10° SE 13:42:07 10° SE 13:42:27 10° SE daylight
21 Aug - 15:14:59 10° SW 15:18:16 64° SSE 15:21:35 10° ENE daylight
21 Aug - 16:52:03 10° W 16:55:10 37° NNW 16:58:18 10° ENE daylight
21 Aug - 18:29:23 10° WNW 18:32:26 32° N 18:35:29 10° ENE daylight
21 Aug - 20:06:08 10° WNW 20:09:30 83° NNE 20:12:50 10° ESE daylight
21 Aug - 21:43:35 10° W 21:45:52 17° SW 21:48:08 10° S visible
22 Aug - 14:26:42 10° SW 14:29:49 39° SE 14:32:58 10° ENE daylight
22 Aug - 16:03:20 10° W 16:06:33 45° NNW 16:09:47 10° ENE daylight
22 Aug - 17:40:46 10° WNW 17:43:46 30° N 17:46:47 10° ENE daylight
22 Aug - 19:17:38 10° WNW 19:20:56 58° NNE 19:24:14 10° ESE daylight
22 Aug - 20:54:38 10° W 20:57:30 27° SW 21:00:23 10° SSE visible
23 Aug - 13:38:39 10° SSW 13:41:25 25° SE 13:44:12 10° E daylight
23 Aug - 15:14:39 10° WSW 15:17:57 62° NNW 15:21:16 10° ENE daylight
23 Aug - 16:52:05 10° WNW 16:55:05 30° N 16:58:06 10° ENE daylight
23 Aug - 18:29:07 10° WNW 18:32:19 43° NNE 18:35:32 10° E daylight
23 Aug - 20:05:53 10° WNW 20:09:05 43° SW 20:12:16 10° SE daylight
24 Aug - 12:50:59 10° S 12:53:03 16° SE 12:55:07 10° E daylight
24 Aug - 14:26:03 10° WSW 14:29:22 89° NNW 14:32:43 10° ENE daylight
24 Aug - 16:03:20 10° WNW 16:06:24 32° N 16:09:27 10° ENE daylight
24 Aug - 17:40:33 10° WNW 17:43:40 35° NNE 17:46:47 10° E daylight
24 Aug - 19:17:16 10° WNW 19:20:35 70° SSW 19:23:54 10° SE daylight
24 Aug - 20:55:40 10° WSW 20:56:47 11° SW 20:57:54 10° SSW visible
25 Aug - 13:37:34 10° SW 13:40:50 59° SSE 13:44:07 10° ENE daylight
25 Aug - 15:14:34 10° W 15:17:42 38° NNW 15:20:51 10° ENE daylight
25 Aug - 16:51:56 10° WNW 16:54:58 31° N 16:58:00 10° ENE daylight
25 Aug - 18:28:41 10° WNW 18:32:01 78° NNE 18:35:22 10° ESE daylight
25 Aug - 20:06:02 10° W 20:08:26 18° SW 20:10:49 10° S daylight
26 Aug - 12:49:15 10° SSW 12:52:20 36° SE 12:55:26 10° ENE daylight
26 Aug - 14:25:47 10° W 14:29:01 47° NNW 14:32:16 10° ENE daylight
26 Aug - 16:03:14 10° WNW 16:06:14 30° N 16:09:14 10° ENE daylight
26 Aug - 17:40:07 10° WNW 17:43:24 55° NNE 17:46:41 10° E daylight
26 Aug - 19:17:03 10° WNW 19:20:00 29° SW 19:22:56 10° SSE daylight
27 Aug - 12:01:11 10° SSW 12:03:52 23° SE 12:06:34 10° E daylight
27 Aug - 13:37:03 10° WSW 13:40:22 65° NNW 13:43:41 10° ENE daylight
27 Aug - 15:14:28 10° WNW 15:17:29 30° N 15:20:29 10° ENE daylight
27 Aug - 16:51:31 10° WNW 16:54:43 42° NNE 16:57:54 10° E daylight
27 Aug - 18:28:17 10° WNW 18:31:30 47° SW 18:34:42 10° SE daylight
28 Aug - 11:13:33 10° S 11:15:26 14° SE 11:17:20 10° E daylight
28 Aug - 12:48:24 10° WSW 12:51:44 86° SSE 12:55:04 10° ENE daylight
28 Aug - 14:25:39 10° WNW 14:28:43 33° N 14:31:47 10° ENE daylight
28 Aug - 16:02:53 10° WNW 16:05:59 35° N 16:09:05 10° E daylight
28 Aug - 17:39:36 10° WNW 17:42:56 75° SSW 17:46:15 10° SE daylight
28 Aug - 19:17:43 10° WSW 19:19:09 12° SW 19:20:35 10° SSW daylight
29 Aug - 11:59:53 10° SW 12:03:08 55° SSE 12:06:24 10° ENE daylight
29 Aug - 13:36:49 10° W 13:39:58 39° NNW 13:43:08 10° ENE daylight
29 Aug - 15:14:11 10° WNW 15:17:13 31° N 15:20:14 10° ENE daylight
29 Aug - 16:50:58 10° WNW 16:54:18 73° NNE 16:57:37 10° ESE daylight
29 Aug - 18:28:13 10° W 18:30:43 20° SW 18:33:13 10° S daylight
